Main page
METAR-TAF:

METAR-TAF

Airports :

Winston Field Airport

Snyder, Texas, United States

latitude: 32-41-36N, longitude: 100-57-01W, elevation: 2430 ft

Current weather observation

The report was made 30 minutes ago, at 15:15 UTC
Wind 12 mph from the Southwest
Temperature 59°F
Humidity 88%
Pressure 30.06 in. Hg
Visibility: 10 miles
Scattered clouds at a height of 1100 ft

METAR: KSNK 231515Z AUTO 23010KT 10SM SCT011 15/13 A3006 RMK AO2 LTG DSNT E T01520125

Time: 10:45 (15:45 UTC)


TAF: missing

Weather observations and forecasts of more than 4000 airports (METAR and TAF reports).

The available stations are represented by yellow and red dots on the map.

Hover mouse over dot to see the name of the station.

Then click to see weather observations and forecasts.

To change the map : click on the green buttons with a black cross to zoom in, on the green button with a dash to zoom out, or on the green arrows for adjacent maps.


METAR-TAF: